Location: Paranavaí
(23.0821°S, 52.4622°W)
Time: 08:36:09
(UTC-03:00)

ISS - Visible Passes

Search period start: 02 March 2021 00:00
Search period end: 12 March 2021 00:00
Orbit: 417 x 422 km, 51.6° (Epoch: 01 March)

Date Brightness Start Highest point End Pass type
(mag) Time Alt. Az. Time Alt. Az. Time Alt. Az.
05 Mar -1.7 20:28:48 10° SSW 20:30:20 20° S 20:30:20 20° S visible
06 Mar -1.8 19:42:04 10° S 19:44:15 16° SE 19:45:07 15° ESE visible
07 Mar -2.8 20:30:17 10° SW 20:33:01 48° W 20:33:01 48° W visible
08 Mar -3.7 19:42:50 10° SSW 19:46:13 61° SE 19:48:05 23° ENE visible
09 Mar -0.9 20:33:34 10° W 20:35:15 13° NW 20:36:18 12° NW visible
10 Mar -1.7 19:44:59 10° WSW 19:47:54 26° NW 19:50:47 10° N visible
